• In United Kingdom
  • List of Countries
  • For 7 days
  • Water Temperature
  • Satellite Maps
  • Weather Map
  • Weather Widgets
  • user-avatar
    Login

    Hourly Weather Ondjiwa

    Today, 12 December, Tuesday

    Time Temperature Precipitation Wind Pressure Humidity
    00:00 +29°C° 0 mm 3 mps 665 mmHg 35%
    01:00 +29°C° 0 mm 3 mps 665 mmHg 37%
    02:00 +28°C° 0 mm 3 mps 665 mmHg 38%
    03:00 +28°C° 0 mm 2 mps 665 mmHg 39%
    04:00 +27°C° 0 mm 2 mps 665 mmHg 40%
    05:00 +27°C° 0 mm 2 mps 666 mmHg 38%
    06:00 +28°C° 0 mm 3 mps 666 mmHg 35%
    07:00 +28°C° 0 mm 3 mps 666 mmHg 33%
    08:00 +30°C° 0 mm 3 mps 667 mmHg 29%
    09:00 +33°C° 0 mm 3 mps 667 mmHg 25%
    10:00 +35°C° 0 mm 3 mps 667 mmHg 21%
    11:00 +36°C° 0 mm 3 mps 667 mmHg 20%
    12:00 +38°C° 0 mm 2 mps 667 mmHg 19%
    13:00 +39°C° 0 mm 2 mps 666 mmHg 17%
    14:00 +39°C° 0 mm 2 mps 666 mmHg 17%
    15:00 +38°C° 0 mm 2 mps 665 mmHg 17%
    16:00 +38°C° 0 mm 2 mps 664 mmHg 17%
    17:00 +37°C° 0 mm 2 mps 664 mmHg 18%
    18:00 +35°C° 0 mm 2 mps 664 mmHg 20%
    19:00 +34°C° 0 mm 2 mps 664 mmHg 21%
    20:00 +34°C° 0 mm 2 mps 665 mmHg 22%
    21:00 +33°C° 0 mm 3 mps 665 mmHg 24%
    22:00 +33°C° 0 mm 3 mps 666 mmHg 25%
    23:00 +31°C° 0 mm 3 mps 666 mmHg 27%

    Tomorrow, 13 December, Wednesday

    Time Temperature Precipitation Wind Pressure Humidity
    00:00 +30°C° 0 mm 3 mps 665 mmHg 29%
    01:00 +29°C° 0 mm 4 mps 665 mmHg 31%
    02:00 +29°C° 0 mm 4 mps 665 mmHg 31%
    03:00 +28°C° 0 mm 4 mps 665 mmHg 32%
    04:00 +28°C° 0 mm 4 mps 665 mmHg 32%
    05:00 +28°C° 0 mm 4 mps 666 mmHg 32%
    06:00 +28°C° 0 mm 4 mps 666 mmHg 31%
    07:00 +28°C° 0 mm 4 mps 667 mmHg 31%
    08:00 +30°C° 0 mm 4 mps 667 mmHg 26%
    09:00 +32°C° 0 mm 4 mps 668 mmHg 22%
    10:00 +34°C° 0 mm 4 mps 668 mmHg 18%
    11:00 +35°C° 0 mm 4 mps 667 mmHg 16%
    12:00 +36°C° 0 mm 4 mps 667 mmHg 15%
    13:00 +37°C° 0 mm 4 mps 666 mmHg 13%
    14:00 +37°C° 0 mm 4 mps 666 mmHg 13%
    15:00 +37°C° 0 mm 4 mps 665 mmHg 13%
    16:00 +38°C° 0 mm 4 mps 665 mmHg 13%
    17:00 +36°C° 0 mm 3 mps 665 mmHg 14%
    18:00 +35°C° 0 mm 2 mps 666 mmHg 15%
    19:00 +32°C° 0 mm 1 mps 666 mmHg 16%
    20:00 +31°C° 0 mm 2 mps 666 mmHg 17%
    21:00 +31°C° 0 mm 3 mps 667 mmHg 19%
    22:00 +30°C° 0 mm 4 mps 667 mmHg 21%
    23:00 +29°C° 0 mm 4 mps 667 mmHg 24%

    Day after tomorrow, 14 December, Thursday

    Time Temperature Precipitation Wind Pressure Humidity
    00:00 +28°C° 0 mm 3 mps 667 mmHg 27%
    01:00 +26°C° 0 mm 3 mps 667 mmHg 30%
    02:00 +25°C° 0 mm 3 mps 667 mmHg 33%
    03:00 +25°C° 0 mm 3 mps 666 mmHg 36%
    04:00 +24°C° 0 mm 2 mps 666 mmHg 40%
    05:00 +24°C° 0 mm 3 mps 667 mmHg 37%
    06:00 +25°C° 0 mm 3 mps 667 mmHg 35%
    07:00 +26°C° 0 mm 3 mps 668 mmHg 32%
    08:00 +28°C° 0 mm 3 mps 668 mmHg 26%
    09:00 +30°C° 0 mm 3 mps 669 mmHg 20%
    10:00 +33°C° 0 mm 3 mps 669 mmHg 14%
    11:00 +35°C° 0 mm 3 mps 668 mmHg 13%
    12:00 +36°C° 0 mm 3 mps 668 mmHg 11%
    13:00 +37°C° 0 mm 3 mps 667 mmHg 10%
    14:00 +37°C° 0 mm 3 mps 667 mmHg 10%
    15:00 +38°C° 0 mm 3 mps 666 mmHg 10%
    16:00 +38°C° 0 mm 3 mps 665 mmHg 9%
    17:00 +36°C° 0 mm 3 mps 665 mmHg 11%
    18:00 +34°C° 0 mm 2 mps 665 mmHg 12%
    19:00 +31°C° 0 mm 2 mps 665 mmHg 13%
    20:00 +30°C° 0 mm 2 mps 666 mmHg 14%
    21:00 +29°C° 0 mm 3 mps 666 mmHg 14%
    22:00 +28°C° 0 mm 3 mps 667 mmHg 15%
    23:00 +27°C° 0 mm 4 mps 666 mmHg 17%

    15 December, Friday

    Time Temperature Precipitation Wind Pressure Humidity
    00:00 +26°C° 0 mm 4 mps 666 mmHg 19%
    01:00 +25°C° 0 mm 4 mps 666 mmHg 20%
    02:00 +24°C° 0 mm 3 mps 665 mmHg 21%
    03:00 +22°C° 0 mm 3 mps 665 mmHg 22%
    04:00 +23°C° 0 mm 2 mps 665 mmHg 23%
    05:00 +24°C° 0 mm 2 mps 666 mmHg 21%
    06:00 +25°C° 0 mm 2 mps 667 mmHg 19%
    07:00 +26°C° 0 mm 3 mps 667 mmHg 17%
    08:00 +28°C° 0 mm 2 mps 668 mmHg 15%
    09:00 +31°C° 0 mm 2 mps 668 mmHg 13%
    10:00 +34°C° 0 mm 2 mps 669 mmHg 11%
    11:00 +36°C° 0 mm 2 mps 668 mmHg 10%
    12:00 +37°C° 0 mm 2 mps 668 mmHg 9%
    13:00 +39°C° 0 mm 2 mps 667 mmHg 9%
    14:00 +39°C° 0 mm 2 mps 666 mmHg 9%
    15:00 +39°C° 0 mm 2 mps 666 mmHg 9%
    16:00 +39°C° 0 mm 2 mps 665 mmHg 9%
    17:00 +37°C° 0 mm 2 mps 665 mmHg 10%
    18:00 +35°C° 0 mm 2 mps 665 mmHg 11%
    19:00 +32°C° 0 mm 2 mps 665 mmHg 13%
    20:00 +31°C° 0 mm 2 mps 665 mmHg 13%
    21:00 +30°C° 0 mm 2 mps 666 mmHg 13%
    22:00 +30°C° 0 mm 2 mps 666 mmHg 14%
    23:00 +28°C° 0 mm 3 mps 666 mmHg 14%

    16 December, Saturday

    Time Temperature Precipitation Wind Pressure Humidity
    00:00 +27°C° 0 mm 3 mps 665 mmHg 15%
    01:00 +26°C° 0 mm 3 mps 665 mmHg 16%
    02:00 +25°C° 0 mm 2 mps 665 mmHg 18%
    03:00 +24°C° 0 mm 2 mps 665 mmHg 20%
    04:00 +23°C° 0 mm 1 mps 665 mmHg 22%
    05:00 +25°C° 0 mm 1 mps 665 mmHg 22%
    06:00 +26°C° 0 mm 1 mps 666 mmHg 21%
    07:00 +27°C° 0 mm 2 mps 667 mmHg 21%
    08:00 +30°C° 0 mm 2 mps 667 mmHg 18%
    09:00 +34°C° 0 mm 2 mps 667 mmHg 15%
    10:00 +36°C° 0 mm 3 mps 668 mmHg 12%
    11:00 +38°C° 0 mm 2 mps 667 mmHg 12%
    12:00 +39°C° 0 mm 2 mps 667 mmHg 11%
    13:00 +40°C° 0 mm 2 mps 666 mmHg 10%
    14:00 +40°C° 0 mm 2 mps 666 mmHg 11%
    15:00 +39°C° 0 mm 3 mps 665 mmHg 11%
    16:00 +39°C° 0 mm 3 mps 665 mmHg 11%
    17:00 +38°C° 0 mm 3 mps 665 mmHg 12%
    18:00 +36°C° 0 mm 2 mps 665 mmHg 14%
    19:00 +34°C° 0 mm 2 mps 665 mmHg 15%
    20:00 +34°C° 0 mm 2 mps 665 mmHg 17%
    21:00 +32°C° 0 mm 2 mps 666 mmHg 20%
    22:00 +32°C° 0 mm 2 mps 666 mmHg 23%
    23:00 +30°C° 0.2 mm 3 mps 666 mmHg 27%

    17 December, Sunday

    Time Temperature Precipitation Wind Pressure Humidity
    00:00 +29°C° 0.2 mm 3 mps 665 mmHg 30%
    01:00 +28°C° 0.2 mm 3 mps 665 mmHg 34%
    02:00 +27°C° 0.4 mm 3 mps 665 mmHg 37%
    03:00 +26°C° 0.4 mm 2 mps 665 mmHg 40%
    04:00 +26°C° 0.4 mm 2 mps 665 mmHg 43%
    05:00 +26°C° 0 mm 2 mps 665 mmHg 43%
    06:00 +27°C° 0 mm 2 mps 666 mmHg 43%
    07:00 +27°C° 0 mm 2 mps 666 mmHg 44%
    08:00 +29°C° 0 mm 2 mps 667 mmHg 40%
    09:00 +32°C° 0 mm 2 mps 667 mmHg 36%
    10:00 +35°C° 0 mm 2 mps 667 mmHg 31%
    11:00 +36°C° 0 mm 2 mps 667 mmHg 29%
    12:00 +37°C° 0 mm 2 mps 666 mmHg 26%
    13:00 +39°C° 0 mm 2 mps 666 mmHg 23%
    14:00 +38°C° 0 mm 2 mps 665 mmHg 24%
    15:00 +37°C° 0 mm 2 mps 664 mmHg 25%
    16:00 +37°C° 0 mm 2 mps 664 mmHg 26%
    17:00 +35°C° 0.3 mm 2 mps 664 mmHg 30%
    18:00 +34°C° 0.3 mm 2 mps 664 mmHg 34%
    19:00 +31°C° 0.3 mm 2 mps 664 mmHg 38%
    20:00 +30°C° 0.5 mm 3 mps 665 mmHg 43%
    21:00 +29°C° 0.5 mm 3 mps 665 mmHg 47%
    22:00 +27°C° 0.5 mm 4 mps 665 mmHg 51%
    23:00 +27°C° 1 mm 3 mps 665 mmHg 51%
    Show more